Location: ????? ??????
(37.8317°N, 23.8750°E)
Time: 17:29:55
(UTC+00:00)

Cosmos 2026 Rocket - Pass Details

Date: 20 January 2021
Orbit: 940 x 1000 km, 82.9° (Epoch: 01 March)

Event Time Altitude Azimuth Distance (km) Brightness Sun altitude
Rises 17:44:08 0° 190° (S) 3,591 7.2 -25.3°
Reaches altitude 10° 17:46:37 10° 192° (SSW) 2,655 6.5 -25.8°
Maximum altitude 17:52:40 74° 277° (W) 991 4.0 -27.0°
Drops below altitude 10° 17:58:51 10° 3° (N) 2,705 6.2 -28.2°
Sets 18:01:23 0° 5° (N) 3,665 6.9 -28.7°
